XM-3 (RHYTHM)

Last updated on Nov. 25, 2020, 6:15 a.m. UTC

1 28626U 05008A   20329.54126876 -.00000201  00000-0  00000-0 0  9996
2 28626   0.0196 305.2684 0000255 206.0438  22.4194  1.00269658 22266
UTC
Height (km)
Latitude
Longitude
Inclination
Orbital Period
UTC large
Height (km)
Speed (km/s)
/
Latitude / Longitude
Inclination (degrees)
Orbital Period (minutes)
Azimuth
Elevation
Range (km)
Doppler Factor
iOS Compass Heading
iOS Angle

Next 30 passes for location: Hong Kong

Rise time Rise Azimuth (degrees) Set time Set Azimuth (degrees) Duration Max altitude (degrees)

No matching passes for this satellites